Simultaneous Nadir Overpasses (SNOs) Predictions

Prediction of SNOs between TERRA and METOP-C Satellite Orbit:

Table of predicted SNOs for the next 14.0 days since TLE Epoch: 6/12/2021
Index Date (TERRA) Time (TERRA) Lat,Lon (TERRA) SZA (TERRA ) Date (METOP-C) Time (METOP-C) Lat,Lon (METOP-C) SZA (METOP-C ) Distance(km) Time Diff (sec)
1 06/12/2021 09:25:12 -81.29, -95.53 119.12 06/12/2021 09:24:38 -81.29, -95.40 119.12 2.27 34
2 06/12/2021 10:14:38 81.29, 72.21 60.90 06/12/2021 10:15:17 81.30, 72.30 60.93 1.67 39
3 06/15/2021 04:59:24 -81.29, -29.09 119.28 06/15/2021 04:58:59 -81.29, -29.16 119.30 1.17 25
4 06/15/2021 05:48:49 81.31, 139.00 60.79 06/15/2021 05:49:37 81.30, 138.88 60.80 2.12 48
5 06/18/2021 00:33:37 -81.28, 37.31 119.39 06/18/2021 00:33:20 -81.29, 37.46 119.38 2.80 17
6 06/18/2021 01:23:02 81.31,-154.64 60.67 06/18/2021 01:23:58 81.31,-154.54 60.71 1.56 56
7 06/20/2021 20:07:49 -81.30, 104.04 119.40 06/20/2021 20:07:41 -81.30, 104.05 119.40 0.42 8
8 06/20/2021 20:57:15 81.30, -88.30 60.61 06/20/2021 20:58:20 81.30, -88.38 60.63 1.21 65
9 06/23/2021 14:52:34 81.29, 2.71 60.59 06/23/2021 14:51:20 81.29, 2.90 60.58 3.26 74
10 06/23/2021 15:42:01 -81.29, 170.37 119.41 06/23/2021 15:42:02 -81.29, 170.24 119.43 2.18 1



Historial Predications of SNOs between TERRA and METOP-C
